Total_Precipitation_Accumulation
0.12 0.15 0.19 0.17 0.19 0.22 0.27 0.41 0.59 0.42 0.11 0.03 0.04 0.08 0.13 0.15 0.16 0.15 0.13 0.14 0.18 0.24 0.30 0.31 0.29 0.34 0.53 1.03 1.92 3.20 3.85 3.21 2.29 1.87 1.70 1.80 2.02 2.35
0.16 0.20 0.21 0.21 0.22 0.23 0.29 0.33 0.47 0.58 0.35 0.05 0.04 0.08 0.18 0.19 0.17 0.15 0.15 0.16 0.16 0.17 0.20 0.23 0.26 0.30 0.38 0.59 1.04 1.83 3.01 3.64 3.20 2.46 1.97 1.94 2.05 2.29
0.18 0.22 0.23 0.26 0.29 0.26 0.30 0.32 0.34 0.40 0.38 0.10 0.03 0.05 0.15 0.22 0.20 0.15 0.15 0.16 0.15 0.16 0.18 0.21 0.25 0.31 0.40 0.51 0.70 1.09 1.78 2.75 3.36 3.14 2.59 2.21 2.08 2.10
0.20 0.24 0.26 0.25 0.26 0.24 0.27 0.28 0.26 0.25 0.31 0.19 0.06 0.05 0.11 0.18 0.27 0.27 0.22 0.19 0.18 0.18 0.20 0.24 0.30 0.33 0.37 0.46 0.61 0.83 1.19 1.75 2.52 2.99 2.90 2.54 2.23 2.16
0.23 0.26 0.26 0.26 0.25 0.22 0.27 0.27 0.22 0.20 0.25 0.27 0.13 0.07 0.11 0.14 0.25 0.35 0.30 0.26 0.23 0.22 0.22 0.24 0.30 0.35 0.36 0.38 0.48 0.64 0.84 1.09 1.52 2.29 2.82 2.73 2.53 2.37
0.17 0.17 0.24 0.34 0.33 0.32 0.35 0.30 0.26 0.29 0.32 0.35 0.23 0.14 0.15 0.16 0.26 0.38 0.42 0.39 0.32 0.27 0.26 0.24 0.28 0.38 0.39 0.33 0.32 0.39 0.59 0.89 1.19 1.60 2.23 2.63 2.55 2.43
0.11 0.11 0.19 0.33 0.38 0.52 0.63 0.53 0.51 0.57 0.53 0.52 0.43 0.34 0.30 0.32 0.36 0.37 0.51 0.53 0.46 0.39 0.32 0.26 0.26 0.26 0.28 0.29 0.29 0.32 0.40 0.57 0.86 1.20 1.59 2.07 2.43 2.47
0.12 0.09 0.12 0.24 0.27 0.35 0.49 0.59 0.67 0.79 0.82 0.78 0.70 0.59 0.45 0.40 0.39 0.48 0.55 0.63 0.62 0.51 0.44 0.34 0.32 0.34 0.30 0.27 0.29 0.28 0.34 0.44 0.65 0.94 1.25 1.56 1.96 2.35
0.10 0.08 0.09 0.18 0.24 0.32 0.37 0.40 0.45 0.59 0.77 0.85 0.87 0.64 0.49 0.42 0.50 0.61 0.57 0.60 0.60 0.65 0.71 0.58 0.42 0.41 0.38 0.42 0.47 0.38 0.35 0.40 0.52 0.73 1.01 1.27 1.54 1.88
0.06 0.07 0.08 0.12 0.25 0.44 0.45 0.40 0.35 0.42 0.61 0.80 1.00 0.85 0.64 0.60 0.75 0.86 0.84 0.74 0.58 0.64 0.82 0.84 0.60 0.50 0.53 0.57 0.57 0.47 0.40 0.39 0.46 0.61 0.82 1.02 1.25 1.52
0.04 0.05 0.08 0.12 0.24 0.44 0.47 0.37 0.26 0.26 0.33 0.54 0.77 0.88 0.82 0.83 0.97 1.24 1.30 1.10 0.82 0.68 0.80 0.94 0.88 0.74 0.79 0.85 0.77 0.62 0.49 0.46 0.48 0.56 0.66 0.77 0.98 1.30
0.06 0.05 0.09 0.20 0.30 0.42 0.41 0.37 0.41 0.33 0.28 0.28 0.34 0.46 0.60 0.71 0.90 1.20 1.36 1.22 0.95 0.92 0.90 0.93 1.08 1.03 1.12 1.11 0.98 0.74 0.54 0.52 0.54 0.57 0.58 0.60 0.73 0.92
0.13 0.10 0.09 0.21 0.29 0.34 0.37 0.39 0.55 0.49 0.34 0.32 0.31 0.33 0.39 0.51 0.68 0.98 1.29 1.32 1.11 0.95 0.90 0.98 1.23 1.16 1.12 1.12 1.08 0.99 0.70 0.52 0.52 0.60 0.63 0.59 0.59 0.62
0.15 0.10 0.10 0.18 0.23 0.28 0.32 0.40 0.43 0.40 0.39 0.35 0.30 0.30 0.35 0.42 0.52 0.70 1.01 1.19 1.14 0.97 0.86 0.96 1.26 1.20 1.03 0.94 0.99 1.12 0.97 0.71 0.57 0.57 0.60 0.74 0.73 0.66
0.14 0.14 0.17 0.19 0.19 0.17 0.19 0.27 0.31 0.34 0.44 0.41 0.31 0.28 0.33 0.43 0.48 0.53 0.69 0.97 1.12 1.10 1.04 1.04 1.24 1.30 1.19 0.99 0.88 1.02 1.10 1.02 0.78 0.69 0.66 0.65 0.59 0.54
0.22 0.18 0.17 0.16 0.14 0.11 0.09 0.12 0.17 0.26 0.37 0.39 0.31 0.25 0.25 0.32 0.44 0.55 0.65 0.81 1.03 1.11 1.14 1.20 1.39 1.60 1.47 1.14 0.97 0.95 0.94 1.08 1.02 0.87 0.77 0.71 0.60 0.43
0.30 0.32 0.23 0.18 0.18 0.15 0.11 0.08 0.09 0.15 0.21 0.24 0.28 0.28 0.27 0.30 0.37 0.49 0.67 0.80 0.96 1.07 1.19 1.36 1.51 1.66 1.68 1.58 1.39 1.10 0.91 0.88 0.96 0.95 0.91 0.88 0.80 0.59
0.34 0.36 0.24 0.17 0.16 0.15 0.14 0.11 0.09 0.10 0.12 0.16 0.21 0.26 0.30 0.33 0.36 0.41 0.55 0.74 0.91 1.01 1.11 1.26 1.43 1.60 1.77 1.89 1.71 1.32 1.02 0.90 0.98 1.06 1.00 0.96 0.98 0.81
0.30 0.24 0.17 0.15 0.14 0.13 0.14 0.14 0.12 0.09 0.12 0.14 0.17 0.20 0.26 0.30 0.33 0.36 0.44 0.58 0.78 0.94 1.07 1.15 1.25 1.39 1.55 1.77 1.93 1.60 1.23 0.99 1.00 1.21 1.23 1.04 0.93 0.87
0.21 0.20 0.16 0.14 0.14 0.15 0.15 0.14 0.13 0.12 0.13 0.13 0.13 0.15 0.19 0.25 0.28 0.31 0.37 0.50 0.66 0.82 0.94 1.04 1.19 1.31 1.37 1.37 1.54 1.69 1.59 1.25 1.04 1.18 1.35 1.28 1.17 1.13
0.15 0.15 0.14 0.15 0.15 0.15 0.15 0.14 0.14 0.13 0.11 0.11 0.11 0.12 0.13 0.17 0.22 0.25 0.31 0.40 0.54 0.69 0.80 0.88 1.04 1.19 1.35 1.35 1.29 1.37 1.59 1.61 1.25 1.13 1.25 1.34 1.35 1.30
0.14 0.15 0.13 0.14 0.15 0.15 0.15 0.14 0.13 0.11 0.10 0.10 0.09 0.09 0.09 0.11 0.15 0.19 0.25 0.32 0.42 0.55 0.70 0.81 0.92 1.10 1.35 1.48 1.43 1.35 1.45 1.63 1.65 1.46 1.32 1.22 1.16 1.07
0.18 0.17 0.15 0.14 0.14 0.14 0.15 0.13 0.13 0.11 0.09 0.08 0.08 0.07 0.07 0.08 0.10 0.14 0.19 0.25 0.34 0.44 0.57 0.73 0.87 1.01 1.24 1.44 1.53 1.46 1.38 1.42 1.52 1.56 1.67 1.49 1.08 0.80